| time (UTC) | temp C | wind direction | speed KPH | gust KPH | rain 1hr cm | rain 24hr cm | rain mn cm | humidity % | barometer mb |
| 20260505083504 | 7 | 279 | 0.0 | 1.6 | 0.00 | 0.13 | 0.00 | 89 | 1007.5 |
| 20260505083005 | 7 | 103 | 0.0 | 0.0 | 0.00 | 0.13 | 0.00 | 89 | 1007.8 |
| 20260505082503 | 7 | 103 | 0.0 | 0.0 | 0.00 | 0.13 | 0.00 | 89 | 1007.7 |
| 20260505082004 | 7 | 103 | 0.0 | 0.0 | 0.00 | 0.13 | 0.00 | 89 | 1007.9 |
| 20260505081503 | 7 | 103 | 0.0 | 0.0 | 0.00 | 0.13 | 0.00 | 89 | 1007.8 |
| 20260505081004 | 7 | 110 | 0.0 | 3.2 | 0.00 | 0.13 | 0.00 | 90 | 1007.8 |
| 20260505080505 | 7 | 103 | 0.0 | 3.2 | 0.00 | 0.13 | 0.00 | 90 | 1007.7 |
| 20260505080003 | 7 | 85 | 0.0 | 0.0 | 0.00 | 0.13 | 0.00 | 90 | 1007.7 |
| 20260505075504 | 7 | 85 | 0.0 | 0.0 | 0.00 | 0.13 | 0.00 | 90 | 1007.7 |
| 20260505074503 | 7 | 184 | 0.0 | 0.0 | 0.00 | 0.13 | 0.00 | 90 | 1007.7 |
| 20260505074004 | 7 | 184 | 0.0 | 0.0 | 0.00 | 0.13 | 0.00 | 90 | 1008.0 |
| 20260505073504 | 7 | 184 | 0.0 | 0.0 | 0.00 | 0.13 | 0.00 | 91 | 1008.1 |
| 20260505073004 | 7 | 184 | 0.0 | 0.0 | 0.00 | 0.13 | 0.00 | 91 | 1008.1 |
| 20260505072004 | 7 | 184 | 0.0 | 0.0 | 0.00 | 0.13 | 0.00 | 91 | 1008.1 |
| 20260505071504 | 7 | 183 | 0.0 | 0.0 | 0.00 | 0.13 | 0.00 | 91 | 1008.2 |
| 20260505070004 | 7 | 183 | 0.0 | 0.0 | 0.00 | 0.13 | 0.00 | 91 | 1008.1 |
| 20260505065504 | 7 | 182 | 0.0 | 1.6 | 0.00 | 0.13 | 0.00 | 91 | 1008.3 |
| 20260505065004 | 8 | 208 | 0.0 | 0.0 | 0.00 | 0.13 | 0.00 | 91 | 1008.3 |
| 20260505064503 | 8 | 209 | 0.0 | 0.0 | 0.00 | 0.13 | 0.00 | 91 | 1008.3 |
| 20260505063504 | 8 | 209 | 0.0 | 0.0 | 0.00 | 0.13 | 0.00 | 91 | 1008.3 |
| 20260505063004 | 8 | 209 | 0.0 | 0.0 | 0.00 | 0.13 | 0.00 | 91 | 1008.3 |
| 20260505062504 | 8 | 209 | 0.0 | 0.0 | 0.00 | 0.13 | 0.00 | 91 | 1008.2 |
| 20260505062005 | 8 | 209 | 0.0 | 0.0 | 0.00 | 0.13 | 0.00 | 91 | 1008.2 |
| 20260505061504 | 8 | 209 | 0.0 | 0.0 | 0.00 | 0.13 | 0.00 | 91 | 1008.2 |
| 20260505061004 | 8 | 209 | 0.0 | 0.0 | 0.03 | 0.13 | 0.00 | 91 | 1008.2 |
| 20260505060506 | 8 | 209 | 0.0 | 1.6 | 0.03 | 0.13 | 0.00 | 91 | 1008.3 |
| 20260505055503 | 8 | 176 | 0.0 | 0.0 | 0.03 | 0.13 | 0.13 | 91 | 1008.1 |
| 20260505055004 | 8 | 176 | 0.0 | 0.0 | 0.03 | 0.13 | 0.13 | 91 | 1008.1 |
| 20260505054504 | 8 | 175 | 0.0 | 0.0 | 0.03 | 0.13 | 0.13 | 91 | 1007.9 |
| 20260505053504 | 8 | 168 | 0.0 | 0.0 | 0.05 | 0.13 | 0.13 | 90 | 1008.0 |
| 20260505053004 | 8 | 168 | 0.0 | 0.0 | 0.05 | 0.13 | 0.13 | 90 | 1008.0 |
| 20260505052504 | 8 | 156 | 0.0 | 0.0 | 0.05 | 0.13 | 0.13 | 90 | 1008.1 |
| 20260505052004 | 8 | 146 | 0.0 | 0.0 | 0.05 | 0.13 | 0.13 | 90 | 1008.1 |
| 20260505051504 | 8 | 145 | 0.0 | 0.0 | 0.05 | 0.13 | 0.13 | 90 | 1008.4 |
| 20260505051005 | 8 | 145 | 0.0 | 0.0 | 0.05 | 0.10 | 0.10 | 90 | 1008.5 |
| 20260505050505 | 8 | 145 | 0.0 | 0.0 | 0.08 | 0.10 | 0.10 | 90 | 1008.4 |
| 20260505041505 | 9 | 26 | 1.6 | 8.0 | 0.08 | 0.08 | 0.08 | 83 | 1008.6 |
| 20260505041004 | 9 | 141 | 0.0 | 8.0 | 0.05 | 0.05 | 0.05 | 81 | 1008.5 |
| 20260505040504 | 10 | 34 | 0.0 | 8.0 | 0.03 | 0.03 | 0.03 | 78 | 1008.3 |
| 20260505035504 | 11 | 138 | 0.0 | 4.8 | 0.00 | 0.00 | 0.00 | 71 | 1008.0 |
| 20260505035004 | 11 | 104 | 0.0 | 3.2 | 0.00 | 0.00 | 0.00 | 68 | 1007.9 |
| 20260505034504 | 11 | 124 | 0.0 | 1.6 | 0.00 | 0.00 | 0.00 | 67 | 1007.6 |
| 20260505034004 | 11 | 149 | 0.0 | 0.0 | 0.00 | 0.00 | 0.00 | 66 | 1007.8 |
| 20260505033504 | 11 | 115 | 0.0 | 1.6 | 0.00 | 0.00 | 0.00 | 66 | 1007.6 |
| 20260505033005 | 11 | 54 | 0.0 | 1.6 | 0.00 | 0.00 | 0.00 | 65 | 1007.4 |
| 20260505032005 | 11 | 104 | 0.0 | 0.0 | 0.00 | 0.00 | 0.00 | 64 | 1007.2 |
| 20260505031504 | 11 | 108 | 0.0 | 0.0 | 0.00 | 0.00 | 0.00 | 64 | 1007.2 |
| 20260505031004 | 11 | 98 | 0.0 | 0.0 | 0.00 | 0.00 | 0.00 | 63 | 1007.2 |
| 20260505030504 | 11 | 70 | 0.0 | 0.0 | 0.00 | 0.00 | 0.00 | 63 | 1007.0 |
| 20260505025504 | 11 | 17 | 0.0 | 0.0 | 0.00 | 0.00 | 0.00 | 62 | 1006.9 |
| 20260505025004 | 11 | 349 | 0.0 | 0.0 | 0.00 | 0.00 | 0.00 | 61 | 1006.7 |
| 20260505024004 | 11 | 336 | 0.0 | 1.6 | 0.00 | 0.00 | 0.00 | 61 | 1006.6 |
| 20260505023004 | 11 | 320 | 0.0 | 1.6 | 0.00 | 0.00 | 0.00 | 61 | 1006.5 |
| 20260505022505 | 11 | 282 | 0.0 | 1.6 | 0.00 | 0.00 | 0.00 | 61 | 1006.5 |
| 20260505022004 | 11 | 115 | 0.0 | 0.0 | 0.00 | 0.00 | 0.00 | 62 | 1006.4 |
| 20260505021504 | 11 | 115 | 0.0 | 0.0 | 0.00 | 0.00 | 0.00 | 62 | 1006.4 |
| 20260505021004 | 11 | 114 | 0.0 | 1.6 | 0.00 | 0.00 | 0.00 | 62 | 1006.5 |
| 20260505020504 | 11 | 84 | 0.0 | 1.6 | 0.00 | 0.00 | 0.00 | 62 | 1006.5 |
| 20260505015503 | 11 | 113 | 0.0 | 3.2 | 0.00 | 0.00 | 0.00 | 61 | 1006.3 |
| 20260505015004 | 11 | 310 | 0.0 | 1.6 | 0.00 | 0.00 | 0.00 | 61 | 1005.9 |
| 20260505014504 | 12 | 61 | 0.0 | 4.8 | 0.00 | 0.00 | 0.00 | 60 | 1005.6 |
| 20260505014008 | 12 | 57 | 1.6 | 4.8 | 0.00 | 0.00 | 0.00 | 58 | 1005.7 |
| 20260505013504 | 12 | 350 | 0.0 | 3.2 | 0.00 | 0.00 | 0.00 | 57 | 1005.6 |
| 20260505013004 | 12 | 346 | 0.0 | 1.6 | 0.00 | 0.00 | 0.00 | 57 | 1005.7 |
| 20260505012504 | 12 | 346 | 0.0 | 0.0 | 0.00 | 0.00 | 0.00 | 56 | 1005.9 |
| 20260505012004 | 12 | 90 | 0.0 | 3.2 | 0.00 | 0.00 | 0.00 | 55 | 1005.9 |
| 20260505011504 | 12 | 75 | 0.0 | 3.2 | 0.00 | 0.00 | 0.00 | 55 | 1005.9 |
| 20260505010505 | 13 | 15 | 1.6 | 4.8 | 0.00 | 0.00 | 0.00 | 53 | 1005.8 |
| 20260505005504 | 13 | 105 | 3.2 | 8.0 | 0.00 | 0.00 | 0.00 | 51 | 1005.8 |
| 20260505005004 | 14 | 353 | 1.6 | 8.0 | 0.00 | 0.00 | 0.00 | 47 | 1005.7 |
| 20260505004503 | 14 | 343 | 1.6 | 8.0 | 0.00 | 0.00 | 0.00 | 44 | 1005.6 |
| 20260505004005 | 14 | 358 | 0.0 | 4.8 | 0.00 | 0.00 | 0.00 | 44 | 1005.5 |
| 20260505003504 | 14 | 347 | 1.6 | 4.8 | 0.00 | 0.00 | 0.00 | 43 | 1005.4 |
| 20260505002504 | 15 | 351 | 0.0 | 4.8 | 0.00 | 0.00 | 0.00 | 42 | 1005.3 |
| 20260505002004 | 15 | 20 | 1.6 | 9.7 | 0.00 | 0.00 | 0.00 | 41 | 1005.2 |
| 20260505001504 | 15 | 6 | 3.2 | 12.9 | 0.00 | 0.00 | 0.00 | 41 | 1005.1 |
| 20260505001004 | 15 | 1 | 0.0 | 8.0 | 0.00 | 0.00 | 0.00 | 41 | 1005.0 |
| 20260505000505 | 15 | 6 | 1.6 | 12.9 | 0.00 | 0.00 | 0.00 | 41 | 1005.0 |
| 20260505000004 | 16 | 347 | 6.4 | 14.5 | 0.00 | 0.00 | 0.00 | 39 | 1004.9 |
| 20260504235504 | 16 | 2 | 4.8 | 11.3 | 0.00 | 0.00 | 0.00 | 37 | 1004.7 |
| 20260504235005 | 16 | 349 | 3.2 | 8.0 | 0.00 | 0.00 | 0.00 | 34 | 1004.5 |
| 20260504234504 | 16 | 336 | 3.2 | 8.0 | 0.00 | 0.00 | 0.00 | 33 | 1004.6 |
| 20260504234004 | 16 | 47 | 3.2 | 9.7 | 0.00 | 0.00 | 0.00 | 32 | 1004.6 |
| 20260504233504 | 16 | 22 | 1.6 | 4.8 | 0.00 | 0.00 | 0.00 | 33 | 1004.6 |
| 20260504233004 | 16 | 63 | 3.2 | 11.3 | 0.00 | 0.00 | 0.00 | 32 | 1004.5 |
| 20260504232004 | 17 | 25 | 1.6 | 4.8 | 0.00 | 0.00 | 0.00 | 32 | 1004.4 |
| 20260504231504 | 17 | 50 | 3.2 | 4.8 | 0.00 | 0.00 | 0.00 | 32 | 1004.3 |
| 20260504231005 | 17 | 357 | 1.6 | 4.8 | 0.00 | 0.00 | 0.00 | 32 | 1004.1 |
| 20260504230505 | 17 | 41 | 3.2 | 8.0 | 0.00 | 0.00 | 0.00 | 32 | 1003.9 |
| 20260504230005 | 17 | 61 | 3.2 | 14.5 | 0.00 | 0.00 | 0.00 | 32 | 1003.9 |
| 20260504225504 | 17 | 0 | 4.8 | 12.9 | 0.00 | 0.00 | 0.00 | 31 | 1003.6 |
| 20260504225005 | 17 | 6 | 3.2 | 11.3 | 0.00 | 0.00 | 0.00 | 31 | 1003.5 |
| 20260504224504 | 17 | 19 | 1.6 | 14.5 | 0.00 | 0.00 | 0.00 | 31 | 1003.5 |
| 20260504224004 | 17 | 0 | 3.2 | 14.5 | 0.00 | 0.00 | 0.00 | 31 | 1003.7 |
| 20260504223505 | 17 | 358 | 1.6 | 4.8 | 0.00 | 0.00 | 0.00 | 30 | 1003.7 |
| 20260504223005 | 17 | 48 | 3.2 | 8.0 | 0.00 | 0.00 | 0.00 | 31 | 1003.8 |
| 20260504222504 | 17 | 76 | 3.2 | 9.7 | 0.00 | 0.00 | 0.00 | 31 | 1003.8 |
| 20260504222004 | 17 | 45 | 1.6 | 14.5 | 0.00 | 0.00 | 0.00 | 29 | 1003.8 |
| 20260504221504 | 18 | 37 | 3.2 | 9.7 | 0.00 | 0.00 | 0.00 | 28 | 1003.6 |
| 20260504221005 | 18 | 23 | 4.8 | 11.3 | 0.00 | 0.00 | 0.00 | 28 | 1003.5 |
| 20260504220504 | 18 | 58 | 3.2 | 11.3 | 0.00 | 0.00 | 0.00 | 27 | 1003.3 |
| 20260504220004 | 19 | 46 | 3.2 | 12.9 | 0.00 | 0.00 | 0.00 | 25 | 1003.2 |
| 20260504215504 | 20 | 71 | 1.6 | 4.8 | 0.00 | 0.00 | 0.00 | 23 | 1003.0 |
| 20260504215005 | 20 | 74 | 1.6 | 4.8 | 0.00 | 0.00 | 0.00 | 23 | 1003.1 |
| 20260504214504 | 20 | 20 | 0.0 | 4.8 | 0.00 | 0.00 | 0.00 | 23 | 1003.1 |
| 20260504214005 | 20 | 8 | 0.0 | 3.2 | 0.00 | 0.00 | 0.00 | 22 | 1003.1 |
| 20260504213505 | 20 | 350 | 1.6 | 12.9 | 0.00 | 0.00 | 0.00 | 22 | 1003.3 |
| 20260504213004 | 20 | 77 | 3.2 | 4.8 | 0.00 | 0.00 | 0.00 | 22 | 1003.5 |
| 20260504212504 | 21 | 115 | 1.6 | 12.9 | 0.00 | 0.00 | 0.00 | 22 | 1003.4 |
| 20260504211504 | 21 | 42 | 3.2 | 8.0 | 0.00 | 0.00 | 0.00 | 21 | 1003.4 |
| 20260504211005 | 21 | 8 | 3.2 | 8.0 | 0.00 | 0.00 | 0.00 | 22 | 1003.5 |
| 20260504210005 | 20 | 33 | 3.2 | 12.9 | 0.00 | 0.00 | 0.00 | 23 | 1003.5 |
| 20260504205505 | 20 | 15 | 1.6 | 14.5 | 0.00 | 0.00 | 0.00 | 22 | 1003.5 |
| 20260504205005 | 20 | 35 | 1.6 | 9.7 | 0.00 | 0.00 | 0.00 | 22 | 1003.5 |
| 20260504204005 | 21 | 11 | 3.2 | 9.7 | 0.00 | 0.00 | 0.00 | 22 | 1003.6 |
| 20260504203505 | 21 | 357 | 3.2 | 12.9 | 0.00 | 0.00 | 0.00 | 23 | 1003.6 |
| 20260504203005 | 21 | 84 | 3.2 | 11.3 | 0.00 | 0.00 | 0.00 | 22 | 1003.6 |
| 20260504202505 | 21 | 84 | 1.6 | 11.3 | 0.00 | 0.00 | 0.00 | 22 | 1003.7 |
| 20260504202005 | 21 | 158 | 3.2 | 12.9 | 0.00 | 0.00 | 0.00 | 22 | 1003.6 |
| 20260504201504 | 21 | 18 | 1.6 | 12.9 | 0.00 | 0.00 | 0.00 | 21 | 1003.7 |
| 20260504201004 | 21 | 85 | 1.6 | 4.8 | 0.00 | 0.00 | 0.00 | 21 | 1003.8 |
| 20260504200504 | 22 | 31 | 3.2 | 8.0 | 0.00 | 0.00 | 0.00 | 21 | 1003.8 |
| 20260504195504 | 22 | 119 | 3.2 | 9.7 | 0.00 | 0.00 | 0.00 | 22 | 1003.9 |
| 20260504195005 | 21 | 31 | 1.6 | 12.9 | 0.00 | 0.00 | 0.00 | 22 | 1003.9 |
| 20260504194504 | 21 | 353 | 0.0 | 4.8 | 0.00 | 0.00 | 0.00 | 24 | 1004.0 |
| 20260504194005 | 20 | 1 | 1.6 | 12.9 | 0.00 | 0.00 | 0.00 | 25 | 1004.2 |
| 20260504193505 | 19 | 357 | 3.2 | 8.0 | 0.00 | 0.00 | 0.00 | 25 | 1004.2 |
| 20260504193005 | 18 | 65 | 0.0 | 4.8 | 0.00 | 0.00 | 0.00 | 26 | 1004.3 |
| 20260504192504 | 18 | 17 | 4.8 | 14.5 | 0.00 | 0.00 | 0.00 | 25 | 1004.4 |
| 20260504192004 | 18 | 109 | 1.6 | 12.9 | 0.00 | 0.00 | 0.00 | 24 | 1004.3 |
| 20260504191505 | 18 | 8 | 3.2 | 12.9 | 0.00 | 0.00 | 0.00 | 24 | 1004.3 |
| 20260504191005 | 18 | 121 | 3.2 | 12.9 | 0.00 | 0.00 | 0.00 | 23 | 1004.3 |
| 20260504190005 | 19 | 150 | 1.6 | 8.0 | 0.00 | 0.00 | 0.00 | 22 | 1004.1 |
| 20260504185504 | 19 | 128 | 4.8 | 16.1 | 0.00 | 0.00 | 0.00 | 22 | 1004.0 |
| 20260504185004 | 20 | 146 | 1.6 | 4.8 | 0.00 | 0.00 | 0.00 | 22 | 1003.9 |
| 20260504184504 | 20 | 191 | 1.6 | 4.8 | 0.00 | 0.00 | 0.00 | 22 | 1003.9 |
| 20260504183505 | 20 | 16 | 0.0 | 3.2 | 0.00 | 0.00 | 0.00 | 22 | 1004.0 |
| 20260504183005 | 20 | 125 | 0.0 | 4.8 | 0.00 | 0.00 | 0.00 | 21 | 1004.0 |
| 20260504182504 | 20 | 63 | 1.6 | 4.8 | 0.00 | 0.00 | 0.00 | 21 | 1004.1 |
| 20260504182005 | 20 | 123 | 0.0 | 1.6 | 0.00 | 0.00 | 0.00 | 21 | 1004.0 |
| 20260504181504 | 20 | 210 | 1.6 | 11.3 | 0.00 | 0.00 | 0.00 | 21 | 1004.1 |
| 20260504181004 | 21 | 109 | 1.6 | 4.8 | 0.00 | 0.00 | 0.00 | 20 | 1004.2 |
| 20260504180505 | 21 | 4 | 1.6 | 4.8 | 0.00 | 0.00 | 0.00 | 20 | 1004.2 |
| 20260504175504 | 21 | 30 | 1.6 | 4.8 | 0.00 | 0.00 | 0.00 | 19 | 1004.3 |
| 20260504175005 | 22 | 20 | 1.6 | 8.0 | 0.00 | 0.00 | 0.00 | 18 | 1004.4 |
| 20260504174504 | 22 | 125 | 1.6 | 9.7 | 0.00 | 0.00 | 0.00 | 19 | 1004.4 |
| 20260504174005 | 22 | 178 | 3.2 | 11.3 | 0.00 | 0.00 | 0.00 | 20 | 1004.5 |
| 20260504173505 | 22 | 337 | 1.6 | 8.0 | 0.00 | 0.00 | 0.00 | 21 | 1004.6 |
| 20260504173005 | 22 | 128 | 0.0 | 14.5 | 0.00 | 0.00 | 0.00 | 20 | 1004.8 |
| 20260504172504 | 21 | 154 | 1.6 | 4.8 | 0.00 | 0.00 | 0.00 | 21 | 1004.8 |
| 20260504171505 | 21 | 143 | 1.6 | 4.8 | 0.00 | 0.00 | 0.00 | 21 | 1004.9 |
| 20260504151005 | 17 | 79 | 0.0 | 3.2 | 0.00 | 0.00 | 0.00 | 27 | 1005.9 |
| 20260504150505 | 17 | 157 | 0.0 | 8.0 | 0.00 | 0.00 | 0.00 | 28 | 1006.0 |
| 20260504141004 | 13 | 219 | 0.0 | 3.2 | 0.00 | 0.00 | 0.00 | 37 | 1006.3 |
| 20260504140505 | 12 | 174 | 0.0 | 1.6 | 0.00 | 0.00 | 0.00 | 37 | 1006.2 |
| 20260504130505 | 10 | 170 | 0.0 | 4.8 | 0.00 | 0.00 | 0.00 | 41 | 1005.9 |
| 20260504110505 | 8 | 246 | 0.0 | 1.6 | 0.00 | 0.00 | 0.00 | 46 | 1005.9 |
| 20260504100504 | 8 | 149 | 0.0 | 1.6 | 0.00 | 0.00 | 0.00 | 49 | 1006.3 |